• In Hungary
  • List of Countries
  • For 7 days
  • Water Temperature
  • Satellite Maps
  • Weather Map
  • News
  • Weather Widgets
  • user-avatar
    Login

    Hourly Weather Lesischi

    Today, 22 October, Monday

    Time Temperature Precipitation Wind Pressure Humidity
    00:00 +4°C° 0 mm 1 mps 754 mmHg 81%
    01:00 +4°C° 0 mm 1 mps 754 mmHg 82%
    02:00 +4°C° 0 mm 1 mps 754 mmHg 84%
    03:00 +4°C° 0 mm 1 mps 754 mmHg 82%
    04:00 +4°C° 0 mm 1 mps 753 mmHg 83%
    05:00 +4°C° 0 mm 1 mps 753 mmHg 84%
    06:00 +4°C° 0 mm 1 mps 753 mmHg 85%
    07:00 +4°C° 0 mm 1 mps 753 mmHg 83%
    08:00 +5°C° 0 mm 1 mps 753 mmHg 80%
    09:00 +5°C° 0 mm 1 mps 753 mmHg 78%
    10:00 +6°C° 0 mm 1 mps 753 mmHg 73%
    11:00 +7°C° 0 mm 1 mps 752 mmHg 68%
    12:00 +8°C° 0 mm 2 mps 752 mmHg 63%
    13:00 +8°C° 0 mm 2 mps 751 mmHg 62%
    14:00 +8°C° 0 mm 2 mps 751 mmHg 60%
    15:00 +9°C° 0 mm 2 mps 750 mmHg 58%
    16:00 +8°C° 0 mm 2 mps 750 mmHg 63%
    17:00 +7°C° 0 mm 2 mps 749 mmHg 68%
    18:00 +6°C° 0 mm 2 mps 749 mmHg 73%
    19:00 +5°C° 0 mm 2 mps 748 mmHg 74%
    20:00 +5°C° 0 mm 2 mps 748 mmHg 76%
    21:00 +4°C° 0 mm 2 mps 747 mmHg 78%
    22:00 +4°C° 0 mm 2 mps 747 mmHg 79%
    23:00 +3°C° 0 mm 3 mps 746 mmHg 80%

    Tomorrow, 23 October, Tuesday

    Time Temperature Precipitation Wind Pressure Humidity
    00:00 +3°C° 0 mm 3 mps 745 mmHg 81%
    01:00 +3°C° 0 mm 3 mps 745 mmHg 81%
    02:00 +2°C° 0 mm 3 mps 744 mmHg 81%
    03:00 +2°C° 0 mm 3 mps 744 mmHg 81%
    04:00 +2°C° 0 mm 3 mps 743 mmHg 81%
    05:00 +2°C° 0 mm 3 mps 742 mmHg 82%
    06:00 +1°C° 0 mm 3 mps 742 mmHg 82%
    07:00 +2°C° 0 mm 3 mps 741 mmHg 80%
    08:00 +1°C° 0 mm 4 mps 741 mmHg 78%
    09:00 +3°C° 0 mm 4 mps 741 mmHg 76%
    10:00 +4°C° 0 mm 4 mps 740 mmHg 75%
    11:00 +5°C° 0 mm 4 mps 740 mmHg 73%
    12:00 +6°C° 0 mm 4 mps 740 mmHg 71%
    13:00 +6°C° 0 mm 4 mps 739 mmHg 72%
    14:00 +6°C° 0 mm 4 mps 739 mmHg 74%
    15:00 +7°C° 0 mm 3 mps 738 mmHg 75%
    16:00 +5°C° 0.1 mm 3 mps 738 mmHg 78%
    17:00 +6°C° 0.1 mm 2 mps 738 mmHg 81%
    18:00 +5°C° 0.1 mm 2 mps 737 mmHg 84%
    19:00 +5°C° 0.1 mm 2 mps 737 mmHg 85%
    20:00 +5°C° 0.1 mm 2 mps 736 mmHg 86%
    21:00 +5°C° 0.1 mm 2 mps 736 mmHg 87%
    22:00 +5°C° 0.1 mm 2 mps 735 mmHg 87%
    23:00 +5°C° 0.1 mm 2 mps 735 mmHg 88%

    Day after tomorrow, 24 October, Wednesday

    Time Temperature Precipitation Wind Pressure Humidity
    00:00 +5°C° 0.1 mm 2 mps 734 mmHg 88%
    01:00 +5°C° 0.1 mm 2 mps 733 mmHg 88%
    02:00 +5°C° 0.1 mm 2 mps 733 mmHg 88%
    03:00 +4°C° 0.1 mm 3 mps 732 mmHg 88%
    04:00 +4°C° 0.2 mm 3 mps 731 mmHg 88%
    05:00 +4°C° 0.2 mm 3 mps 731 mmHg 88%
    06:00 +4°C° 0.2 mm 2 mps 730 mmHg 88%
    07:00 +4°C° 0.2 mm 3 mps 730 mmHg 85%
    08:00 +4°C° 0.2 mm 3 mps 730 mmHg 82%
    09:00 +4°C° 0.2 mm 4 mps 729 mmHg 79%
    10:00 +5°C° 0.1 mm 4 mps 729 mmHg 74%
    11:00 +6°C° 0.1 mm 4 mps 729 mmHg 69%
    12:00 +6°C° 0.1 mm 4 mps 728 mmHg 64%
    13:00 +6°C° 0.1 mm 4 mps 728 mmHg 67%
    14:00 +6°C° 0.1 mm 5 mps 728 mmHg 69%
    15:00 +7°C° 0.1 mm 5 mps 728 mmHg 71%
    16:00 +6°C° 0.3 mm 5 mps 727 mmHg 75%
    17:00 +6°C° 0.3 mm 5 mps 727 mmHg 79%
    18:00 +6°C° 0.3 mm 5 mps 727 mmHg 83%
    19:00 +6°C° 0 mm 4 mps 727 mmHg 86%
    20:00 +5°C° 0 mm 4 mps 727 mmHg 88%
    21:00 +5°C° 0 mm 4 mps 727 mmHg 91%
    22:00 +5°C° 0.1 mm 3 mps 727 mmHg 93%
    23:00 +5°C° 0.1 mm 3 mps 727 mmHg 94%

    25 October, Thursday

    Time Temperature Precipitation Wind Pressure Humidity
    00:00 +5°C° 0.1 mm 3 mps 727 mmHg 95%
    01:00 +5°C° 0.5 mm 4 mps 726 mmHg 95%
    02:00 +6°C° 0.5 mm 4 mps 726 mmHg 95%
    03:00 +6°C° 0.5 mm 4 mps 726 mmHg 95%
    04:00 +6°C° 0.3 mm 4 mps 725 mmHg 94%
    05:00 +6°C° 0.3 mm 4 mps 725 mmHg 94%
    06:00 +6°C° 0.3 mm 4 mps 724 mmHg 93%
    07:00 +6°C° 0.5 mm 5 mps 723 mmHg 93%
    08:00 +7°C° 0.5 mm 6 mps 722 mmHg 92%
    09:00 +7°C° 0.5 mm 6 mps 722 mmHg 92%
    10:00 +6°C° 2.3 mm 7 mps 721 mmHg 89%
    11:00 +6°C° 2.3 mm 7 mps 720 mmHg 87%
    12:00 +7°C° 2.3 mm 8 mps 719 mmHg 85%
    13:00 +8°C° 0.4 mm 7 mps 719 mmHg 77%
    14:00 +6°C° 0.4 mm 7 mps 718 mmHg 70%
    15:00 +6°C° 0.4 mm 7 mps 718 mmHg 63%
    16:00 +6°C° 0.3 mm 5 mps 717 mmHg 69%
    17:00 +5°C° 0.3 mm 4 mps 717 mmHg 75%
    18:00 +5°C° 0.3 mm 2 mps 717 mmHg 82%
    19:00 +4°C° 0.1 mm 3 mps 717 mmHg 83%
    20:00 +4°C° 0.1 mm 3 mps 717 mmHg 85%
    21:00 +4°C° 0.1 mm 3 mps 717 mmHg 86%
    22:00 +4°C° 0 mm 4 mps 718 mmHg 86%
    23:00 +2°C° 0 mm 5 mps 719 mmHg 86%

    26 October, Friday

    Time Temperature Precipitation Wind Pressure Humidity
    00:00 +2°C° 0 mm 6 mps 720 mmHg 85%
    01:00 +2°C° 0.1 mm 7 mps 721 mmHg 83%
    02:00 +2°C° 0.1 mm 7 mps 722 mmHg 82%
    03:00 +1°C° 0.1 mm 8 mps 723 mmHg 80%
    04:00 +1°C° 0.1 mm 8 mps 723 mmHg 79%
    05:00 0°C° 0.1 mm 7 mps 724 mmHg 79%
    06:00 0°C° 0.1 mm 7 mps 725 mmHg 78%
    07:00 0°C° 0 mm 7 mps 726 mmHg 77%
    08:00 0°C° 0 mm 7 mps 727 mmHg 76%
    09:00 0°C° 0 mm 7 mps 728 mmHg 76%
    10:00 0°C° 0 mm 7 mps 729 mmHg 72%
    11:00 0°C° 0 mm 7 mps 729 mmHg 69%
    12:00 0°C° 0 mm 7 mps 730 mmHg 65%
    13:00 +2°C° 0 mm 7 mps 731 mmHg 64%
    14:00 +2°C° 0 mm 7 mps 732 mmHg 62%
    15:00 +2°C° 0 mm 7 mps 732 mmHg 61%
    16:00 +2°C° 0 mm 7 mps 733 mmHg 65%
    17:00 +1°C° 0 mm 6 mps 734 mmHg 70%
    18:00 +1°C° 0 mm 6 mps 735 mmHg 75%
    19:00 +1°C° 0 mm 6 mps 735 mmHg 75%
    20:00 +1°C° 0 mm 6 mps 736 mmHg 75%
    21:00 +1°C° 0 mm 6 mps 737 mmHg 76%
    22:00 +1°C° 0 mm 5 mps 737 mmHg 77%
    23:00 +1°C° 0 mm 5 mps 738 mmHg 78%

    27 October, Saturday

    Time Temperature Precipitation Wind Pressure Humidity
    00:00 0°C° 0 mm 5 mps 738 mmHg 79%
    01:00 0°C° 0 mm 5 mps 739 mmHg 80%
    02:00 0°C° 0 mm 5 mps 740 mmHg 81%
    03:00 -1°C° 0 mm 5 mps 740 mmHg 82%
    04:00 -1°C° 0 mm 4 mps 741 mmHg 83%
    05:00 -2°C° 0 mm 4 mps 742 mmHg 84%
    06:00 -2°C° 0 mm 4 mps 742 mmHg 85%
    07:00 -2°C° 0 mm 4 mps 743 mmHg 83%
    08:00 -1°C° 0 mm 4 mps 743 mmHg 81%
    09:00 -1°C° 0 mm 5 mps 744 mmHg 79%
    10:00 0°C° 0 mm 5 mps 744 mmHg 74%
    11:00 +2°C° 0 mm 5 mps 744 mmHg 70%
    12:00 +3°C° 0 mm 5 mps 744 mmHg 65%
    13:00 +3°C° 0 mm 5 mps 744 mmHg 65%
    14:00 +5°C° 0 mm 5 mps 744 mmHg 65%
    15:00 +5°C° 0 mm 5 mps 744 mmHg 65%
    16:00 +5°C° 0 mm 5 mps 744 mmHg 68%
    17:00 +3°C° 0 mm 5 mps 743 mmHg 71%
    18:00 +3°C° 0 mm 5 mps 743 mmHg 74%
    19:00 +3°C° 0 mm 6 mps 743 mmHg 75%
    20:00 +4°C° 0 mm 6 mps 743 mmHg 77%
    21:00 +4°C° 0 mm 6 mps 743 mmHg 78%
    22:00 +4°C° 0 mm 6 mps 743 mmHg 79%
    23:00 +5°C° 0 mm 5 mps 743 mmHg 80%

    28 October, Sunday

    Time Temperature Precipitation Wind Pressure Humidity
    00:00 +5°C° 0 mm 5 mps 744 mmHg 80%
    01:00 +3°C° 0 mm 5 mps 744 mmHg 84%
    02:00 +4°C° 0 mm 4 mps 744 mmHg 88%
    03:00 +3°C° 0 mm 4 mps 744 mmHg 91%
    04:00 +3°C° 0 mm 3 mps 744 mmHg 93%
    05:00 +3°C° 0 mm 3 mps 744 mmHg 94%
    06:00 +3°C° 0 mm 3 mps 743 mmHg 95%
    07:00 +4°C° 0 mm 3 mps 743 mmHg 95%
    08:00 +5°C° 0 mm 3 mps 743 mmHg 95%
    09:00 +7°C° 0 mm 3 mps 743 mmHg 95%
    10:00 +7°C° 0.1 mm 4 mps 743 mmHg 94%
    11:00 +8°C° 0.1 mm 4 mps 743 mmHg 92%
    12:00 +9°C° 0.1 mm 5 mps 743 mmHg 91%
    13:00 +9°C° 0.1 mm 5 mps 743 mmHg 90%
    14:00 +9°C° 0.1 mm 6 mps 743 mmHg 88%
    15:00 +10°C° 0.1 mm 6 mps 742 mmHg 87%
    16:00 +10°C° 0 mm 6 mps 742 mmHg 87%
    17:00 +10°C° 0 mm 6 mps 742 mmHg 86%
    18:00 +10°C° 0 mm 7 mps 742 mmHg 86%
    19:00 +10°C° 0 mm 7 mps 742 mmHg 85%
    20:00 +10°C° 0 mm 7 mps 742 mmHg 85%
    21:00 +10°C° 0 mm 7 mps 742 mmHg 84%
    22:00 +10°C° 0 mm 7 mps 742 mmHg 85%
    23:00 +10°C° 0 mm 6 mps 742 mmHg 86%
    Show more